Weather History for KENW - December, 2013

Change the Weather History Date:

Wednesday, December 25, 2013

  Actual Average Record
Temperature  
Mean Temperature 21 °F -  
Max Temperature 25 °F 27 °F 60 °F (1982)
Min Temperature 17 °F 12 °F -19 °F (1983)
Degree Days  
Heating Degree Days 44    
Moisture  
Dew Point 17 °F    
Average Humidity 80    
Maximum Humidity 88    
Minimum Humidity 68    
Precipitation  
Precipitation 0.06 in - - ()
Sea Level Pressure  
Sea Level Pressure 30.17 in    
Wind  
Wind Speed 12 mph (SW)    
Max Wind Speed 16 mph    
Max Gust Speed -    
Visibility 3 miles    
Events Snow    
Averages and records for this station are not official NWS values.
T = Trace of Precipitation, MM = Missing Value Source: NWS Daily Summary

Daily Weather History Graph

Daily Weather History Graph

Search for Another Location

Airport or City:

Trip Planner

Search our weather history database for the weather conditions in past years. The results will help you decide how hot, cold, wet, or windy it might be!

Date:

Astronomy

Dec. 25, 2013 Rise Set
Actual Time 7:20 AM CST 4:23 PM CST
Civil Twilight 6:48 AM CST 4:56 PM CST
Nautical Twilight 6:12 AM CST 5:31 PM CST
Astronomical Twilight 5:38 AM CST 6:05 PM CST
Moon No Moon Rise 11:34 AM CST (12/25)
Length of Visible Light 10h 07m
Length of Day
9h 03m
Waning Gibbous, 48% of the Moon is Illuminated
Dec 25
Waning Gibbous
Jan 1
New
Jan 7
First Quarter
Jan 15
Full
Jan 23
Last Quarter

Hourly Weather History & Observations

Time (CST) Temp. Windchill Dew Point Humidity Pressure Visibility Wind Dir Wind Speed Gust Speed Precip Events Conditions
12:53 AM 17.1 °F 3.6 °F 10.0 °F 74% 30.33 in 10.0 mi South 12.7 mph - 0.00 in   Overcast
1:53 AM 18.0 °F 4.8 °F 10.0 °F 71% 30.30 in 10.0 mi South 12.7 mph - N/A   Overcast
2:53 AM 19.0 °F 5.0 °F 10.0 °F 68% 30.28 in 10.0 mi South 15.0 mph - N/A   Overcast
3:48 AM 19.4 °F 6.0 °F 10.4 °F 68% 30.22 in 2.0 mi SSW 13.8 mph - 0.01 in Snow Light Snow
3:53 AM 19.0 °F 6.1 °F 10.9 °F 71% 30.27 in 2.5 mi SSW 12.7 mph - 0.01 in Snow Light Snow
4:10 AM 19.0 °F 5.0 °F 12.0 °F 74% 30.22 in 1.0 mi SSW 15.0 mph - 0.01 in Snow Light Snow
4:14 AM 19.0 °F 6.1 °F 12.0 °F 74% 30.22 in 0.8 mi SSW 12.7 mph - 0.01 in Snow Light Snow
4:36 AM 19.0 °F 5.0 °F 14.0 °F 81% 30.21 in 0.5 mi SSW 15.0 mph - 0.03 in Snow Snow
4:53 AM 19.0 °F 7.5 °F 14.0 °F 81% 30.26 in 0.8 mi SSW 10.4 mph - 0.04 in Snow Light Snow
4:59 AM 19.0 °F 8.2 °F 14.0 °F 81% 30.21 in 1.2 mi SSW 9.2 mph - 0.00 in Snow Light Snow
5:13 AM 19.0 °F 7.5 °F 14.0 °F 81% 30.21 in 3.0 mi SSW 10.4 mph - 0.00 in Snow Light Snow
5:53 AM 19.0 °F 6.8 °F 14.0 °F 81% 30.25 in 7.0 mi SSW 11.5 mph - 0.00 in   Overcast
6:53 AM 19.9 °F 6.2 °F 14.0 °F 78% 30.25 in 9.0 mi SSW 15.0 mph - N/A   Overcast
7:53 AM 19.9 °F 7.3 °F 15.1 °F 81% 30.24 in 7.0 mi SSW 12.7 mph - N/A   Overcast
8:53 AM 21.0 °F 9.3 °F 16.0 °F 81% 30.24 in 3.0 mi SW 11.5 mph - N/A   Haze
9:09 AM 21.9 °F 10.4 °F 17.1 °F 82% 30.19 in 1.8 mi SW 11.5 mph - N/A   Haze
9:19 AM 21.9 °F 11.0 °F 17.1 °F 82% 30.19 in 3.0 mi SW 10.4 mph - N/A   Haze
9:53 AM 21.9 °F 11.0 °F 17.1 °F 82% 30.23 in 4.0 mi SW 10.4 mph - N/A   Haze
10:53 AM 23.0 °F 11.7 °F 17.1 °F 78% 30.21 in 5.0 mi SW 11.5 mph - N/A   Haze
11:53 AM 24.1 °F 14.4 °F 18.0 °F 77% 30.19 in 5.0 mi SW 9.2 mph - N/A   Haze
12:53 PM 24.1 °F 11.0 °F 19.0 °F 81% 30.17 in 5.0 mi WSW 16.1 mph - N/A   Haze
1:53 PM 24.1 °F 13.1 °F 19.0 °F 81% 30.15 in 3.0 mi WSW 11.5 mph - N/A   Haze
2:53 PM 24.1 °F 12.5 °F 19.9 °F 84% 30.14 in 1.8 mi WSW 12.7 mph - 0.00 in Snow Light Snow
3:53 PM 25.0 °F 16.3 °F 19.9 °F 81% 30.14 in 0.8 mi SW 8.1 mph - 0.00 in Snow Light Snow
4:51 PM 24.8 °F 16.9 °F 21.2 °F 86% 30.10 in 1.0 mi WSW 6.9 mph - 0.01 in Snow Light Snow
4:53 PM 24.1 °F 17.0 °F 21.0 °F 88% 30.14 in 1.0 mi WSW 5.8 mph - 0.01 in Snow Light Snow
5:53 PM 24.1 °F 16.0 °F 19.9 °F 84% 30.14 in 2.5 mi WSW 6.9 mph - 0.00 in Snow Light Snow
6:03 PM 24.1 °F 15.2 °F 19.9 °F 84% 30.10 in 3.0 mi WSW 8.1 mph - 0.00 in   Overcast
6:34 PM 24.1 °F 14.4 °F 19.9 °F 84% 30.09 in 2.5 mi WSW 9.2 mph - 0.00 in Snow Light Snow
6:53 PM 24.1 °F 13.7 °F 19.9 °F 84% 30.13 in 1.5 mi WSW 10.4 mph - 0.00 in Snow Light Snow
7:51 PM 24.8 °F 14.0 °F 19.4 °F 80% 30.08 in 1.2 mi WSW 11.5 mph - 0.00 in Snow Light Snow
7:53 PM 24.1 °F 13.7 °F 19.9 °F 84% 30.11 in 1.2 mi WSW 10.4 mph - 0.00 in Snow Light Snow
8:05 PM 24.1 °F 13.7 °F 19.9 °F 84% 30.07 in 2.0 mi WSW 10.4 mph - 0.00 in Snow Light Snow
8:27 PM 24.1 °F 13.1 °F 19.0 °F 81% 30.07 in 1.5 mi WSW 11.5 mph - 0.00 in Snow Light Snow
8:39 PM 24.1 °F 13.7 °F 19.0 °F 81% 30.07 in 2.5 mi WSW 10.4 mph - 0.00 in Snow Light Snow
8:53 PM 24.1 °F 14.4 °F 19.0 °F 81% 30.11 in 1.5 mi WSW 9.2 mph - 0.00 in Snow Light Snow
9:06 PM 24.1 °F 13.7 °F 19.0 °F 81% 30.07 in 2.5 mi West 10.4 mph - 0.00 in Snow Light Snow
9:16 PM 24.1 °F 14.4 °F 19.0 °F 81% 30.07 in 3.0 mi WSW 9.2 mph - 0.00 in Snow Light Snow
9:24 PM 24.1 °F 15.2 °F 19.0 °F 81% 30.06 in 3.0 mi WSW 8.1 mph - 0.00 in   Haze
9:53 PM 24.1 °F 14.4 °F 19.0 °F 81% 30.09 in 4.0 mi West 9.2 mph - 0.00 in   Haze
10:53 PM 24.1 °F 14.4 °F 19.0 °F 81% 30.09 in 4.0 mi West 9.2 mph - N/A   Haze
11:53 PM 25.0 °F 14.8 °F 19.9 °F 81% 30.09 in 4.0 mi West 10.4 mph - N/A   Haze